Regional Weather Roundup
Issued by NWS Mt. Holly, NJ

Current Version | Previous Version | Text Only | Print | Product List | Glossary On
Versions: 1 2 3 4 5 6 7 8 9 10 11 12 13 14 15 16 17 18 19 20 21 22 23 24 25 26 27
000
ASUS41 KPHI 230312
RWRPHI

REGIONAL WEATHER ROUNDUP
NATIONAL WEATHER SERVICE MOUNT HOLLY NJ
1100 PM EDT THU JUN 22 2017

NOTE:  "FAIR" INDICATES FEW OR NO CLOUDS BELOW 12,000 FEET WITH NO
SIGNIFICANT WEATHER AND/OR OBSTRUCTIONS TO VISIBILITY.

 * = STATION DOES NOT REPORT PRECIPITATION (E.G. RAIN, SNOW, ETC.)
        OR FOG.

NJZ015>026-230400-
SOUTHERN NEW JERSEY

CITY           SKY/WX    TMP DP  RH WIND       PRES   REMARKS
POMONA         PTCLDY    77  73  87 S6        29.95R
WILDWOOD*      CLOUDY    76  72  87 S5        29.96F
MILLVILLE      CLOUDY    77  75  93 SW3       29.95S
WRIGHTSTOWN    CLEAR     75  72  88 SW8       29.91S
MOUNT HOLLY    CLOUDY    76  71  85 VRB3      29.93S
TRENTON        CLOUDY    80  69  69 SW6       29.92S

$$
NJZ001>014-230400-
NORTHERN NEW JERSEY

CITY           SKY/WX    TMP DP  RH WIND       PRES   REMARKS
SUSSEX         PTCLDY    73  68  84 CALM      29.91S
ANDOVER*         N/A     72  67  84 CALM      29.92F
MORRISTOWN     CLOUDY    77  68  73 CALM      29.91S
NEWARK         CLOUDY    80  69  69 S8        29.90S
TETERBORO      CLOUDY    78  68  71 SW7       29.89S
CALDWELL       MOCLDY    81  67  62 SW5       29.91S
SOMERVILLE     CLOUDY    74  70  87 CALM      29.90S
ALLAIRE*       CLOUDY    77  70  79 SW6       29.94S
TOMS RIVER*    CLOUDY    75  72  90 SW6       29.95S

$$
PAZ043-044-047-054-055-060>062-066>071-230400-
EASTERN PENNSYLVANIA

CITY           SKY/WX    TMP DP  RH WIND       PRES   REMARKS
PHILADELPHIA   CLOUDY    81  71  71 S6        29.93S
NORTH PHILA    MOCLDY    83  70  64 SW6       29.94S
BLUE BELL*     CLOUDY    77  70  78 SW5       29.94F
DOYLESTOWN     CLOUDY    79  70  74 SW5       29.93S
QUAKERTOWN*    CLOUDY    77  72  83 CALM      29.95S
PERKASIE*      FAIR      77  72  83 CALM      29.95S
POTTSTOWN      CLOUDY    79  70  74 SW6       29.94F
LANCASTER      CLOUDY    80  72  76 NW7       29.94F
COATESVILLE    CLOUDY    77  72  83 CALM      29.97F
READING        CLOUDY    77  74  90 W6        29.93S
ALLENTOWN      CLOUDY    80  69  69 SW9       29.92S
MOUNT POCONO   PTCLDY    71  66  84 W7        29.99S
HAZLETON         N/A     72  64  78 CALM      30.01F
LEHIGHTON      FAIR      72  70  94 CALM      29.94F
WILKES BARRE   CLOUDY    77  68  73 SW8       29.94S

$$
DEZALL-MDZ008-012-015-019-020-230400-
DELAWARE AND EASTERN MARYLAND

CITY           SKY/WX    TMP DP  RH WIND       PRES   REMARKS
WILMINGTON     MOCLDY    80  72  76 SW5       29.94F
DOVER          PTCLDY    77  77 100 S6        29.94S
GEORGETOWN     PTCLDY    77  73  87 SW5       29.97S
EASTON         CLEAR     79  73  82 SW3       30.00S
ABERDEEN       PTCLDY    75  72  90 SW6       29.94F
PATUXENT       CLOUDY    78  73  84 SW6       29.97S
OCEAN CITY     MOCLDY    72  70  93 W3        29.98S
WALLOPS ISLAND CLOUDY    77  74  90 SW5       29.99R
CAMBRIDGE      CLEAR     77  73  88 CALM      29.97S
SALISBURY      PTCLDY    76  75  97 SW8       29.97S

$$
PAZ001-021-NYZ056-072-MDZ011-DCZ001-230400-
OTHER NEARBY LOCATIONS

CITY           SKY/WX    TMP DP  RH WIND       PRES   REMARKS
HARRISBURG     CLOUDY    73  69  87 NW6       29.93F
STATE COLLEGE  PTCLDY    70  67  88 W7        29.98S
WILLIAMSPORT   CLOUDY    74  70  87 SW6       29.92S
BINGHAMTON     CLEAR     72  64  78 SW9       29.93
NEW YORK CITY  CLOUDY    79  67  66 SW3       29.93F
BALTIMORE      CLOUDY    78  73  84 S3        29.95S
WASHINGTON DC  MOCLDY    81  77  88 S7        29.96S

$$




USA.gov is the U.S. government's official web portal to all federal, state and local government web resources and services.